This demonstration page uses our WeatherBlox Daily Observations layout. Learn more.

Left ArrowRight Arrow

39.29038, -76.61219

Hourly Observations for November 7, 2018

Temp ( °F °C ) Dew Point ( °F °C ) Humidity (%) Winds ( mph kmh ) Pressure ( in mb ) Visibility ( mi km ) Precip ( " mm )
12:54 am 00:54 undefined 56 13.3 49 9.4 77 77 undefined N/A 29.95 1014 N/A 0.00 0.00
1:54 am 01:54 undefined 55 12.8 46 7.8 72 72 undefined N/A 29.98 1015 N/A 0.00 0.00
2:54 am 02:54 undefined 52 11.1 46 7.8 80 80 undefined N/A 29.97 1015 N/A 0.00 0.00
3:54 am 03:54 undefined 50 10 45 7.2 83 83 undefined N/A 29.98 1015 N/A 0.00 0.00
4:54 am 04:54 undefined 50 10 44 6.7 80 80 undefined N/A 30.01 1016 N/A 0.00 0.00
5:54 am 05:54 undefined 50 10 43 6.1 77 77 undefined N/A 30.02 1017 N/A 0.00 0.00
6:54 am 06:54 undefined 50 10 43 6.1 77 77 undefined N/A 30.03 1017 N/A 0.00 0.00
7:54 am 07:54 undefined 54 12.2 43 6.1 67 67 undefined N/A 30.09 1019 N/A 0.00 0.00
8:54 am 08:54 undefined 60 15.6 44 6.7 56 56 undefined N/A 30.13 1020 N/A 0.00 0.00
9:54 am 09:54 undefined 63 17.2 41 5 45 45 undefined N/A 30.11 1020 N/A 0.00 0.00
10:54 am 10:54 undefined 63 17.2 38 3.3 40 40 undefined N/A 30.09 1019 N/A 0.00 0.00
11:54 am 11:54 undefined 63 17.2 38 3.3 40 40 undefined N/A 30.07 1018 N/A 0.00 0.00
12:54 pm 12:54 undefined 63 17.2 38 3.3 40 40 undefined N/A 30.06 1018 N/A 0.00 0.00
1:54 pm 13:54 undefined 61 16.1 37 2.8 41 41 undefined N/A 30.06 1018 N/A 0.00 0.00
2:54 pm 14:54 undefined 62 16.7 38 3.3 41 41 undefined N/A 30.05 1018 N/A 0.00 0.00
3:54 pm 15:54 undefined 61 16.1 40 4.4 46 46 undefined N/A 30.06 1018 N/A 0.00 0.00
4:54 pm 16:54 undefined 60 15.6 41 5 50 50 undefined N/A 30.07 1018 N/A 0.00 0.00
5:54 pm 17:54 undefined 59 15 42 5.6 54 54 undefined N/A 30.08 1019 N/A 0.00 0.00
6:54 pm 18:54 undefined 59 15 42 5.6 54 54 undefined N/A 30.10 1019 N/A 0.00 0.00
7:54 pm 19:54 undefined 59 15 43 6.1 56 56 undefined N/A 30.10 1019 N/A 0.00 0.00
8:54 pm 20:54 undefined 59 15 44 6.7 58 58 undefined N/A 30.11 1020 N/A 0.00 0.00
9:54 pm 21:54 undefined 58 14.4 44 6.7 60 60 undefined N/A 30.13 1020 N/A 0.00 0.00
10:54 pm 22:54 undefined 58 14.4 44 6.7 60 60 undefined N/A 30.13 1020 N/A 0.00 0.00
11:54 pm 23:54 undefined 60 15.6 39 3.9 46 46 undefined N/A 30.13 1020 N/A 0.00 0.00

Powered by AerisWeather